This is the latest recevied weather packets stored in our database for station/object K6CQU-13. If no packets are shown the sender has not sent any weather packets the latest 10 day(s).
| Time | Temp. | Humidity | Pressure | Rain* | Wind** | Luminosity | Snow |
|---|---|---|---|---|---|---|---|
| 1787591717 | 22.22° C | 70% | 1014.1 hPa | 0 mm | - | 620 W/m² | - |
| 1787591417 | 21.67° C | 71% | 1014 hPa | 0 mm | - | 603 W/m² | - |
| 1787591117 | 21.67° C | 71% | 1014 hPa | 0 mm | - | 593 W/m² | - |
| 1787590817 | 21.11° C | 73% | 1014 hPa | 0 mm | - | 581 W/m² | - |
| 1787590517 | 21.11° C | 73% | 1014 hPa | 0 mm | - | 562 W/m² | - |
| 1787590227 | 21.11° C | 71% | 1014 hPa | 0 mm | - | 521 W/m² | - |
| 1787589917 | 20.56° C | 72% | 1013.9 hPa | 0 mm | - | 522 W/m² | - |
| 1787589617 | 20.56° C | 73% | 1013.9 hPa | 0 mm | - | 518 W/m² | - |
| 1787589317 | 20° C | 75% | 1013.9 hPa | 0 mm | - | 501 W/m² | - |
| 1787589017 | 20° C | 75% | 1013.9 hPa | 0 mm | - | 488 W/m² | - |
| 1787588717 | 20° C | 77% | 1013.9 hPa | 0 mm | - | 482 W/m² | - |
| 1787588417 | 19.44° C | 78% | 1013.9 hPa | 0 mm | - | 473 W/m² | - |
| 1787588127 | 19.44° C | 79% | 1013.8 hPa | 0 mm | - | 416 W/m² | - |
| 1787587817 | 18.89° C | 80% | 1013.8 hPa | 0 mm | - | 381 W/m² | - |
| 1787587517 | 18.89° C | 81% | 1013.6 hPa | 0 mm | - | 338 W/m² | - |
| 1787587217 | 18.33° C | 82% | 1013.7 hPa | 0 mm | - | 375 W/m² | - |
| 1787586917 | 18.33° C | 83% | 1013.5 hPa | 0 mm | - | 407 W/m² | - |
| 1787586617 | 17.78° C | 84% | 1013.5 hPa | 0 mm | - | 312 W/m² | - |
| 1787586316 | 17.78° C | 84% | 1013.5 hPa | 0 mm | - | 182 W/m² | - |
| 1787586017 | 17.78° C | 84% | 1013.4 hPa | 0 mm | - | 121 W/m² | - |
| 1787585716 | 17.78° C | 84% | 1013.4 hPa | 0 mm | - | 116 W/m² | - |
| 1787585417 | 17.78° C | 84% | 1013.3 hPa | 0 mm | - | 104 W/m² | - |
| 1787585117 | 17.78° C | 84% | 1013.3 hPa | 0 mm | - | 105 W/m² | - |
| 1787584816 | 17.78° C | 84% | 1013.2 hPa | 0 mm | - | 107 W/m² | - |
| 1787584517 | 17.78° C | 84% | 1013.2 hPa | 0 mm | - | 96 W/m² | - |
* Rain latest hour (hover to see other rain measurements)
** Current wind speed in m/s (hover to see current wind gust speed)